Showing default

COSMOS 382, 4786

Orbit data source: Space-Track

COSMOS 382, 4786 is a payload satellite owned by TsKBEM (CIS) in LEO that was launched on Wed, 02 Dec 1970 UTC via a PROTON-K/D launch vehicle from the Tyuratam Missile And Space Complex (TTMTR). Payload-class satellites include a variety of spacecraft equipped with specific instruments for various scientific and technological missions. These include communications satellites like Starlink; space stations such as the ISS; scientific satellites like the Hubble; Earth observation satellites from companies like Planet Labs, Umbra, and HawkEye 360; GPS; miniature CubeSats for education and research; and military/defense satellites.

Loading next visibility...
Identifier
4786, 1970-103A
Orbit
LEO
Last TLE update
10 hours ago
Origin
Manufacturer
TsKBEM
Mission
Civil Spaceship
Bus & Motor
7K-L1E, Unknown motor
Mass
~19,040 kg wet, ~2,800 kg dry
Launch date (UTC)
1970-12-02 (55 years ago)
Launch vehicle
PROTON-K/D
Launch site
Tyuratam Missile And Space Complex (TTMTR)
Object type
Payload
Rocket body
Debris
Shape & HBR
Sphere, 2 m
Radar Cross Section
19.635 m², Large (>1 m²)

Expand to show TLE details & history

TLE from 10 hours ago
0 COSMOS 382
1 04786U 70103A   25169.83280490 -.00000026  00000-0  00000-0 0  9992
2 04786  55.8727 343.9373 1357170 132.6598   5.4321  8.42042187677967
Epoch: 2025-06-18T19:59Z
TLE epoch observation values (Epoch: 2025-06-18T19:59:14.343Z)
Latitude
32.33299°
Longitude
-68.46311°
Altitude
2,453.056 km
Speed
7.161 km/s
True Right ascension
09h 14m 37s
True Declination
32° 12' 27"
Sunlit
Object was in daylight at epoch
Visualization orbit readout
Latitude
5.93636°
Longitude
140.35664°
Altitude
4,501.372 km
Speed
5.851 km/s
Apparent Right ascension
00h 48m 38s
Apparent Declination
-14° 07' 31"
Sunlit
Object is in daylight
Visualization observer readout
Local Sidereal Time
17:17:50
Azimuth
86.614° E
Elevation
-26.334°
Doppler factor
1
Orbital elements
Apogee altitude
5,212.601 km
Perigee altitude
2,442.438 km
Semi-major axis
10,205.656 km
Eccentricity
0.13572
Inclination
55.8727°
RAAN
343.9373°
Arg. of periapsis
132.6598°
True anomaly
Unknown
Mean anomaly
5.4321°
Eccentric anomaly
Unknown
Mean motion
2.10514 °/min
Orbital period
171.01 mins
BSTAR
0
Loading maneuver chart data...
Loading SW <> Apogee altitude chart data...
Loading historical data...
Loading historical data...
Loading historical data...
Loading historical data...
Loading historical data...
Loading historical data...
Loading historical data...

COSMOS 382 Visibility forecast

Observer location: undefined°, undefined°

Span
Click to sort rows by Start time (UTC) header in descending order
Start Az.
Max El. time (UTC)
Max El. Az.
Max El.
End time (UTC)
End Az.
38 mins2025-06-19 12:02:21.948Z184.611° SSW2025-06-19 12:24:21.948Z121.409° SE36.616°2025-06-19 12:40:21.948Z52.588° ENE
35 mins2025-06-19 15:05:21.948Z241.418° WSW2025-06-19 15:26:21.948Z328.453° NNW42.655°2025-06-19 15:40:21.948Z47.236° ENE
27 mins2025-06-19 18:16:21.948Z295.396° NW2025-06-19 18:31:21.948Z6.854° NNE34.623°2025-06-19 18:43:21.948Z75.373° E
26 mins2025-06-19 21:21:21.948Z313.69° NW2025-06-19 21:34:21.948Z93.044° ESE44.919°2025-06-19 21:47:21.948Z135.552° SSE
16 mins2025-06-20 00:24:21.948Z287.668° WNW2025-06-20 00:31:21.948Z251.819° W19.175°2025-06-20 00:40:21.948Z208.471° SW
|